Location: Prairie View Elementary School
(39.8322°N, 99.5698°W)
Time: 00:03:12
(UTC+00:00)

Cosmos 1553 Rocket - Pass Details

Date: 08 December 2019
Orbit: 942 x 1007 km, 82.9° (Epoch: 16 January)

Event Time Altitude Azimuth Distance (km) Brightness Sun altitude
Rises 01:08:38 0° 357° (N) 3,712 6.9 -21.5°
Reaches altitude 10° 01:11:14 10° 3° (N) 2,767 6.2 -22.0°
Maximum altitude 01:17:27 53° 79° (E) 1,220 4.1 -23.1°
Drops below altitude 10° 01:23:40 10° 155° (SSE) 2,774 6.2 -24.3°
Sets 01:26:16 0° 160° (SSE) 3,721 6.9 -24.8°
